{"data":{"norad_id":66954,"epoch":"2026-09-20T05:59:34.130112Z","epoch_age_seconds":133698,"freshness":"FRESH","line1":"1 66954U 25287B   26263.24970058 -.00000075  00000+0 -21009-3 0  9996","line2":"2 66954  86.4902 250.2666 0001259  86.8241 273.3037 13.24394662 37920","mean_motion":13.24394662,"eccentricity":0.0001259,"inclination_deg":86.4902,"raan_deg":250.2666,"arg_perigee_deg":86.8241,"mean_anomaly_deg":273.3037,"bstar":-0.00021009,"rev_number":3792,"period_min":108.72891905389,"perigee_km":1167.0303906397,"apogee_km":1168.9305030128,"semimajor_km":7546.1174468262,"source":"CELESTRAK","updated_at":"2026-09-21T09:00:16.320670Z"}}